Weather History for KLRD - November, 2013

Change the Weather History Date:

Saturday, November 2, 2013

  Actual Average Record
Temperature  
Mean Temperature 68 °F 71 °F  
Max Temperature 78 °F 82 °F 96 °F (1942)
Min Temperature 57 °F 60 °F 33 °F (1912)
Degree Days  
Heating Degree Days 0 1  
Month to date heating degree days 0 2  
Since 1 July heating degree days 0 14  
Cooling Degree Days 3 7  
Month to date cooling degree days 14 14  
Year to date cooling degree days 4371 4143  
Growing Degree Days 16 (Base 50)    
Moisture  
Dew Point 39 °F    
Average Humidity 36    
Maximum Humidity 61    
Minimum Humidity 20    
Precipitation  
Precipitation 0.00 in 0.05 in 1.50 in (1911)
Month to date precipitation 0.00 0.10  
Year to date precipitation 20.00 18.23  
Sea Level Pressure  
Sea Level Pressure 30.22 in    
Wind  
Wind Speed 10 mph (NNE)    
Max Wind Speed 20 mph    
Max Gust Speed 25 mph    
Visibility 10 miles    
Events      
T = Trace of Precipitation, MM = Missing Value Source: NWS Daily Summary

Daily Weather History Graph

Daily Weather History Graph

Search for Another Location

Airport or City:

Trip Planner

Search our weather history database for the weather conditions in past years. The results will help you decide how hot, cold, wet, or windy it might be!

Date:

Astronomy

Nov. 02, 2013 Rise Set
Actual Time 7:49 AM CDT 6:53 PM CDT
Civil Twilight 7:25 AM CDT 7:17 PM CDT
Nautical Twilight 6:57 AM CDT 7:44 PM CDT
Astronomical Twilight 6:30 AM CDT 8:12 PM CDT
Moon 6:52 AM CDT (11/2) 6:24 PM CDT (11/2)
Length of Visible Light 11h 52m
Length of Day
11h 03m
Waning Crescent, 1% of the Moon is Illuminated
Nov 2
Waning Crescent
Nov 3
New
Nov 9
First Quarter
Nov 17
Full
Nov 25
Last Quarter

Hourly Weather History & Observations

Time (CDT) Temp. Dew Point Humidity Pressure Visibility Wind Dir Wind Speed Gust Speed Precip Events Conditions
12:56 AM 70.9 °F 36.9 °F 29% 30.10 in 10.0 mi North 11.5 mph - N/A   Clear
1:56 AM 70.0 °F 38.8 °F 32% 30.09 in 10.0 mi NNE 19.6 mph 25.3 mph N/A   Scattered Clouds
2:56 AM 66.9 °F 41.0 °F 39% 30.11 in 10.0 mi NNE 13.8 mph - N/A   Partly Cloudy
3:56 AM 64.9 °F 41.9 °F 43% 30.16 in 10.0 mi NNE 11.5 mph - N/A   Clear
4:56 AM 64.9 °F 41.9 °F 43% 30.17 in 10.0 mi NNE 16.1 mph - N/A   Clear
5:56 AM 63.9 °F 43.0 °F 47% 30.19 in 10.0 mi NNE 12.7 mph - N/A   Clear
6:56 AM 61.0 °F 43.9 °F 53% 30.23 in 10.0 mi NNW 8.1 mph - N/A   Clear
7:56 AM 56.8 °F 43.9 °F 62% 30.27 in 10.0 mi WNW 6.9 mph - N/A   Clear
8:56 AM 59.9 °F 43.9 °F 55% 30.30 in 10.0 mi WNW 5.8 mph - N/A   Clear
9:56 AM 65.8 °F 45.0 °F 47% 30.33 in 10.0 mi Variable 4.6 mph - N/A   Clear
10:56 AM 70.0 °F 38.8 °F 32% 30.33 in 10.0 mi NE 10.4 mph - N/A   Clear
11:56 AM 72.0 °F 38.8 °F 30% 30.32 in 10.0 mi NNE 9.2 mph - N/A   Clear
12:56 PM 73.9 °F 38.8 °F 28% 30.30 in 10.0 mi North 5.8 mph - N/A   Clear
1:56 PM 74.8 °F 37.9 °F 26% 30.27 in 10.0 mi Variable 3.5 mph - N/A   Clear
2:56 PM 77.0 °F 39.9 °F 26% 30.23 in 10.0 mi Variable 5.8 mph - N/A   Clear
3:56 PM 77.9 °F 36.9 °F 23% 30.20 in 10.0 mi NE 9.2 mph - N/A   Clear
4:56 PM 77.9 °F 34.9 °F 21% 30.19 in 10.0 mi ENE 8.1 mph - N/A   Clear
5:56 PM 77.0 °F 34.0 °F 21% 30.18 in 10.0 mi NE 5.8 mph - N/A   Clear
6:56 PM 72.9 °F 36.0 °F 26% 30.19 in 10.0 mi Calm Calm - N/A   Clear
7:56 PM 70.0 °F 38.8 °F 32% 30.21 in 10.0 mi Calm Calm - N/A   Clear
8:56 PM 66.9 °F 36.9 °F 33% 30.23 in 10.0 mi East 5.8 mph - N/A   Clear
9:56 PM 63.0 °F 36.9 °F 38% 30.25 in 10.0 mi ENE 8.1 mph - N/A   Clear
10:56 PM 61.9 °F 36.9 °F 39% 30.25 in 10.0 mi East 5.8 mph - N/A   Clear
11:56 PM 61.0 °F 36.9 °F 41% 30.24 in 10.0 mi East 6.9 mph - N/A   Clear